Year,Month,Day,Hour,Minute,Value (Times are PST for temperature in C)
2010,06,22,10,58,12.90
2010,06,22,11,00,12.90
2010,06,22,11,01,12.90
2010,06,22,11,02,12.90
2010,06,22,11,03,12.90
2010,06,22,11,04,12.90
2010,06,22,11,05,12.90
2010,06,22,11,06,12.90
2010,06,22,11,07,12.90
2010,06,22,11,08,12.90
2010,06,22,11,09,13.00
2010,06,22,11,10,13.00
2010,06,22,11,11,13.10
2010,06,22,11,12,13.10
2010,06,22,11,13,13.10
2010,06,22,11,14,13.00
2010,06,22,11,15,13.00
2010,06,22,11,16,13.00
2010,06,22,11,17,13.00
2010,06,22,11,18,13.00
2010,06,22,11,19,13.00
2010,06,22,11,20,13.00
2010,06,22,11,21,13.00
2010,06,22,11,22,13.00
2010,06,22,11,23,13.10
2010,06,22,11,24,13.10
2010,06,22,11,25,13.10
2010,06,22,11,26,13.10
2010,06,22,11,27,13.10
2010,06,22,11,28,13.10
2010,06,22,11,29,13.10
2010,06,22,11,30,13.10
2010,06,22,11,31,13.20
2010,06,22,11,32,13.20
2010,06,22,11,33,13.20
2010,06,22,11,34,13.20
2010,06,22,11,35,13.20
2010,06,22,11,36,13.20
2010,06,22,11,37,13.10
2010,06,22,11,38,13.10
2010,06,22,11,39,13.00
2010,06,22,11,40,13.00
2010,06,22,11,41,12.90
2010,06,22,11,42,12.90
2010,06,22,11,43,12.90
2010,06,22,11,44,12.80
2010,06,22,11,45,12.90
2010,06,22,11,46,12.90
2010,06,22,11,47,12.90
2010,06,22,11,48,12.90
2010,06,22,11,49,12.80
2010,06,22,11,50,12.90
2010,06,22,11,51,12.90
2010,06,22,11,52,12.90
2010,06,22,11,53,12.90
2010,06,22,11,54,13.00
2010,06,22,11,55,13.00
2010,06,22,11,56,13.00
2010,06,22,11,57,13.00
2010,06,22,11,58,13.00
2010,06,22,11,59,13.00
2010,06,22,12,00,13.00
2010,06,22,12,01,13.10
2010,06,22,12,02,13.10
2010,06,22,12,03,13.20
2010,06,22,12,04,13.20
2010,06,22,12,05,13.30
2010,06,22,12,06,13.30
2010,06,22,12,07,13.30
2010,06,22,12,08,13.30
2010,06,22,12,09,13.40
2010,06,22,12,10,13.50
2010,06,22,12,11,13.50
2010,06,22,12,12,13.60
2010,06,22,12,13,13.60
2010,06,22,12,14,13.60
2010,06,22,12,15,13.70
2010,06,22,12,16,13.60
2010,06,22,12,17,13.70
2010,06,22,12,18,13.70
2010,06,22,12,19,13.70
2010,06,22,12,20,13.70
2010,06,22,12,21,13.70
2010,06,22,12,22,13.70
2010,06,22,12,23,13.70
2010,06,22,12,24,13.70
2010,06,22,12,25,13.80
2010,06,22,12,26,13.80
2010,06,22,12,27,13.80
2010,06,22,12,28,13.80
2010,06,22,12,29,13.80
2010,06,22,12,30,13.70
2010,06,22,12,31,13.70
2010,06,22,12,32,13.70
2010,06,22,12,33,13.70
2010,06,22,12,34,13.70
2010,06,22,12,35,13.70
2010,06,22,12,36,13.70
2010,06,22,12,37,13.70
2010,06,22,12,38,13.70
2010,06,22,12,39,13.70
2010,06,22,12,40,13.70
2010,06,22,12,41,13.80
2010,06,22,12,42,13.80
2010,06,22,12,43,13.80
2010,06,22,12,44,13.70
2010,06,22,12,45,13.70
2010,06,22,12,46,13.70
2010,06,22,12,47,13.60
2010,06,22,12,48,13.60
2010,06,22,12,49,13.50
2010,06,22,12,50,13.50
2010,06,22,12,51,13.40
2010,06,22,12,52,13.40
2010,06,22,12,53,13.40
2010,06,22,12,54,13.40
2010,06,22,12,55,13.40
2010,06,22,12,56,13.40
2010,06,22,12,57,13.30
2010,06,22,12,58,13.30
2010,06,22,12,59,13.30
2010,06,22,13,00,13.30
2010,06,22,13,01,13.40
2010,06,22,13,02,13.40
2010,06,22,13,03,13.50
2010,06,22,13,04,13.60
2010,06,22,13,05,13.60
2010,06,22,13,06,13.60
2010,06,22,13,07,13.60
2010,06,22,13,08,13.60
2010,06,22,13,09,13.70
2010,06,22,13,10,13.70
2010,06,22,13,11,13.80
2010,06,22,13,12,13.80
2010,06,22,13,13,13.80
2010,06,22,13,14,13.90
2010,06,22,13,15,13.90
2010,06,22,13,16,13.90
2010,06,22,13,17,13.90
2010,06,22,13,18,13.90
2010,06,22,13,19,13.90
2010,06,22,13,20,13.90
2010,06,22,13,21,14.00
2010,06,22,13,22,14.00
2010,06,22,13,23,14.00
2010,06,22,13,24,14.00
2010,06,22,13,25,14.00
2010,06,22,13,26,14.10
2010,06,22,13,27,14.10
2010,06,22,13,28,14.10
2010,06,22,13,29,14.10
2010,06,22,13,30,14.10
2010,06,22,13,31,14.10
2010,06,22,13,32,14.00
2010,06,22,13,33,14.00
2010,06,22,13,34,14.00
2010,06,22,13,35,14.00
2010,06,22,13,36,14.00
2010,06,22,13,37,14.00
2010,06,22,13,38,14.00
2010,06,22,13,39,14.00
2010,06,22,13,40,14.00
2010,06,22,13,41,14.00
2010,06,22,13,42,14.00
2010,06,22,13,43,14.10
2010,06,22,13,44,14.10
2010,06,22,13,45,14.10
2010,06,22,13,46,14.10
2010,06,22,13,47,14.10
2010,06,22,13,48,14.10
2010,06,22,13,49,14.10
2010,06,22,13,50,14.00
2010,06,22,13,51,14.10
2010,06,22,13,52,14.10
2010,06,22,13,53,14.20
2010,06,22,13,54,14.30
2010,06,22,13,55,14.30
2010,06,22,13,56,14.30
2010,06,22,13,57,14.30
2010,06,22,13,58,14.20
2010,06,22,13,59,14.20
2010,06,22,14,00,14.30
2010,06,22,14,01,14.30
2010,06,22,14,02,14.30
2010,06,22,14,03,14.30
2010,06,22,14,04,14.30
2010,06,22,14,05,14.30
2010,06,22,14,06,14.30
2010,06,22,14,07,14.30
2010,06,22,14,08,14.30
2010,06,22,14,09,14.40
2010,06,22,14,10,14.30
2010,06,22,14,11,14.30
2010,06,22,14,12,14.20
2010,06,22,14,13,14.20
2010,06,22,14,14,14.20
2010,06,22,14,15,14.20
2010,06,22,14,16,14.10
2010,06,22,14,17,14.10
2010,06,22,14,18,14.10
2010,06,22,14,19,14.10
2010,06,22,14,20,14.00
2010,06,22,14,21,14.00
2010,06,22,14,22,14.00
2010,06,22,14,23,14.00
2010,06,22,14,24,14.00
2010,06,22,14,25,14.10
2010,06,22,14,26,14.10
2010,06,22,14,27,14.10
2010,06,22,14,28,14.20
2010,06,22,14,29,14.20
2010,06,22,14,30,14.10
2010,06,22,14,31,14.10
2010,06,22,14,32,14.10
2010,06,22,14,33,14.10
2010,06,22,14,34,14.20
2010,06,22,14,35,14.20
2010,06,22,14,36,14.20
2010,06,22,14,37,14.20
2010,06,22,14,38,14.20
2010,06,22,14,39,14.20
2010,06,22,14,40,14.20
2010,06,22,14,41,14.20
2010,06,22,14,42,14.30
2010,06,22,14,43,14.30
2010,06,22,14,44,14.30
2010,06,22,14,45,14.40
2010,06,22,14,46,14.40
2010,06,22,14,47,14.50
2010,06,22,14,48,14.50
2010,06,22,14,49,14.50
2010,06,22,14,50,14.60
2010,06,22,14,51,14.60
2010,06,22,14,52,14.70
2010,06,22,14,53,14.70
2010,06,22,14,54,14.70
2010,06,22,14,55,14.70
2010,06,22,14,56,14.70
2010,06,22,14,57,14.70
2010,06,22,14,58,14.70
2010,06,22,14,59,14.70
2010,06,22,15,00,14.80
2010,06,22,15,01,14.80
2010,06,22,15,02,14.90
2010,06,22,15,03,14.90
2010,06,22,15,04,14.90
2010,06,22,15,05,14.90
2010,06,22,15,06,15.00
2010,06,22,15,07,15.00
2010,06,22,15,08,15.10
2010,06,22,15,09,15.10
2010,06,22,15,10,15.00
2010,06,22,15,11,15.00
2010,06,22,15,12,14.90
2010,06,22,15,13,14.80
2010,06,22,15,14,14.70
2010,06,22,15,15,14.60
2010,06,22,15,16,14.60
2010,06,22,15,17,14.50
2010,06,22,15,18,14.50
2010,06,22,15,19,14.60
2010,06,22,15,20,14.60
2010,06,22,15,21,14.50
2010,06,22,15,22,14.40
2010,06,22,15,23,14.40
2010,06,22,15,24,14.30
2010,06,22,15,25,14.40
2010,06,22,15,26,14.40
2010,06,22,15,27,14.50
2010,06,22,15,28,14.50
2010,06,22,15,29,14.50
2010,06,22,15,30,14.50
2010,06,22,15,31,14.50
2010,06,22,15,32,14.60
2010,06,22,15,33,14.60
2010,06,22,15,34,14.70
2010,06,22,15,35,14.70
2010,06,22,15,36,14.80
2010,06,22,15,37,14.70
2010,06,22,15,38,14.60
2010,06,22,15,39,14.60
2010,06,22,15,40,14.50
2010,06,22,15,41,14.50
2010,06,22,15,42,14.60
2010,06,22,15,43,14.60
2010,06,22,15,44,14.70
2010,06,22,15,45,14.70
2010,06,22,15,46,14.70
2010,06,22,15,47,14.70
2010,06,22,15,48,14.60
2010,06,22,15,49,14.50
2010,06,22,15,50,14.40
2010,06,22,15,51,14.40
2010,06,22,15,52,14.50
2010,06,22,15,53,14.50
2010,06,22,15,54,14.50
2010,06,22,15,55,14.50
2010,06,22,15,56,14.50
2010,06,22,15,57,14.50
2010,06,22,15,58,14.50
2010,06,22,15,59,14.40
2010,06,22,16,00,14.40
2010,06,22,16,01,14.50
2010,06,22,16,02,14.60
2010,06,22,16,03,14.50
2010,06,22,16,04,14.50
2010,06,22,16,05,14.40
2010,06,22,16,06,14.30
2010,06,22,16,07,14.30
2010,06,22,16,08,14.30
2010,06,22,16,09,14.40
2010,06,22,16,10,14.50
2010,06,22,16,11,14.50
2010,06,22,16,12,14.60
2010,06,22,16,13,14.60
2010,06,22,16,14,14.60
2010,06,22,16,15,14.70
2010,06,22,16,16,14.70
2010,06,22,16,17,14.60
2010,06,22,16,18,14.60
2010,06,22,16,19,14.70
2010,06,22,16,20,14.70
2010,06,22,16,21,14.60
2010,06,22,16,22,14.60
2010,06,22,16,23,14.60
2010,06,22,16,24,14.60
2010,06,22,16,25,14.60
2010,06,22,16,26,14.60
2010,06,22,16,27,14.60
2010,06,22,16,28,14.60
2010,06,22,16,29,14.70
2010,06,22,16,30,14.70
2010,06,22,16,31,14.80
2010,06,22,16,32,14.90
2010,06,22,16,33,14.90
2010,06,22,16,34,14.80
2010,06,22,16,35,14.70
2010,06,22,16,36,14.70
2010,06,22,16,37,14.70
2010,06,22,16,38,14.70
2010,06,22,16,39,14.70
2010,06,22,16,40,14.60
2010,06,22,16,41,14.70
2010,06,22,16,42,14.70
2010,06,22,16,43,14.80
2010,06,22,16,44,14.90
2010,06,22,16,45,14.90
2010,06,22,16,46,15.00
2010,06,22,16,47,15.00
2010,06,22,16,48,15.00
2010,06,22,16,49,15.00
2010,06,22,16,50,15.00
2010,06,22,16,51,15.00
2010,06,22,16,52,15.00
2010,06,22,16,53,15.00
2010,06,22,16,54,15.00
2010,06,22,16,55,14.90
2010,06,22,16,56,14.90
2010,06,22,16,57,14.90
2010,06,22,16,58,14.90
2010,06,22,16,59,14.80
2010,06,22,17,00,14.80
2010,06,22,17,01,14.80
2010,06,22,17,02,14.80
2010,06,22,17,03,14.80
2010,06,22,17,04,14.80
2010,06,22,17,05,14.80
2010,06,22,17,06,14.80
2010,06,22,17,07,14.70
2010,06,22,17,08,14.60
2010,06,22,17,09,14.60
2010,06,22,17,10,14.60
2010,06,22,17,11,14.60
2010,06,22,17,12,14.60
2010,06,22,17,13,14.60
2010,06,22,17,14,14.70
2010,06,22,17,15,14.70
2010,06,22,17,16,14.60
2010,06,22,17,17,14.50
2010,06,22,17,18,14.40
2010,06,22,17,19,14.40
2010,06,22,17,20,14.30
2010,06,22,17,21,14.30
2010,06,22,17,22,14.30
2010,06,22,17,23,14.30
2010,06,22,17,24,14.30
2010,06,22,17,25,14.40
2010,06,22,17,26,14.40
2010,06,22,17,27,14.40
2010,06,22,17,28,14.40
2010,06,22,17,29,14.30
2010,06,22,17,30,14.30
2010,06,22,17,31,14.30
2010,06,22,17,32,14.30
2010,06,22,17,33,14.30
2010,06,22,17,34,14.30
2010,06,22,17,35,14.20
2010,06,22,17,36,14.20
2010,06,22,17,37,14.20
2010,06,22,17,38,14.10
2010,06,22,17,39,14.20
2010,06,22,17,40,14.10
2010,06,22,17,41,14.00
2010,06,22,17,42,14.00
2010,06,22,17,43,14.00
2010,06,22,17,44,14.00
2010,06,22,17,45,14.00
2010,06,22,17,46,14.00
2010,06,22,17,47,14.00
2010,06,22,17,48,13.90
2010,06,22,17,49,13.90
2010,06,22,17,50,14.00
2010,06,22,17,51,14.00
2010,06,22,17,52,14.00
2010,06,22,17,53,14.00
2010,06,22,17,54,14.00
2010,06,22,17,55,14.00
2010,06,22,17,56,14.00
2010,06,22,17,57,14.10
2010,06,22,17,58,14.10
2010,06,22,17,59,14.20
2010,06,22,18,00,14.20
2010,06,22,18,01,14.20
2010,06,22,18,02,14.20
2010,06,22,18,03,14.20
2010,06,22,18,04,14.30
2010,06,22,18,05,14.30
2010,06,22,18,06,14.40
2010,06,22,18,07,14.40
2010,06,22,18,08,14.40
2010,06,22,18,09,14.40
2010,06,22,18,10,14.40
2010,06,22,18,11,14.40
2010,06,22,18,12,14.40
2010,06,22,18,13,14.30
2010,06,22,18,14,14.30
2010,06,22,18,15,14.40
2010,06,22,18,16,14.40
2010,06,22,18,17,14.40
2010,06,22,18,18,14.50
2010,06,22,18,19,14.50
2010,06,22,18,20,14.50
2010,06,22,18,21,14.50
2010,06,22,18,22,14.50
2010,06,22,18,23,14.40
2010,06,22,18,24,14.40
2010,06,22,18,25,14.40
2010,06,22,18,26,14.30
2010,06,22,18,27,14.30
2010,06,22,18,28,14.20
2010,06,22,18,29,14.20
2010,06,22,18,30,14.10
2010,06,22,18,31,14.10
2010,06,22,18,32,14.10
2010,06,22,18,33,14.10
2010,06,22,18,34,14.10
2010,06,22,18,35,14.10
2010,06,22,18,36,14.10
2010,06,22,18,37,14.00
2010,06,22,18,38,14.00
2010,06,22,18,39,13.90
2010,06,22,18,40,13.90
2010,06,22,18,41,13.90
2010,06,22,18,42,13.90
2010,06,22,18,43,13.80
2010,06,22,18,44,13.80
2010,06,22,18,45,13.80
2010,06,22,18,46,13.80
2010,06,22,18,47,13.80
2010,06,22,18,48,13.80
2010,06,22,18,49,13.70
2010,06,22,18,50,13.70
2010,06,22,18,51,13.70
2010,06,22,18,52,13.70
2010,06,22,18,53,13.70
2010,06,22,18,54,13.70
2010,06,22,18,55,13.70
2010,06,22,18,56,13.70
2010,06,22,18,57,13.70
2010,06,22,18,58,13.70
2010,06,22,18,59,13.70
2010,06,22,19,00,13.70
2010,06,22,19,01,13.70
2010,06,22,19,02,13.70
2010,06,22,19,03,13.70
2010,06,22,19,04,13.60
2010,06,22,19,05,13.60
2010,06,22,19,06,13.60
2010,06,22,19,07,13.60
2010,06,22,19,08,13.70
2010,06,22,19,09,13.70
2010,06,22,19,10,13.70
2010,06,22,19,11,13.70
2010,06,22,19,12,13.70
2010,06,22,19,13,13.70
2010,06,22,19,14,13.70
2010,06,22,19,15,13.70
2010,06,22,19,16,13.70
2010,06,22,19,17,13.70
2010,06,22,19,18,13.70
2010,06,22,19,19,13.70
2010,06,22,19,20,13.70
2010,06,22,19,21,13.70
2010,06,22,19,22,13.70
2010,06,22,19,23,13.70
2010,06,22,19,24,13.70
2010,06,22,19,25,13.60
2010,06,22,19,26,13.60
2010,06,22,19,27,13.60
2010,06,22,19,28,13.60
2010,06,22,19,29,13.60
2010,06,22,19,30,13.60
2010,06,22,19,31,13.60
2010,06,22,19,32,13.60
2010,06,22,19,33,13.60
2010,06,22,19,34,13.60
2010,06,22,19,35,13.60
2010,06,22,19,36,13.60
2010,06,22,19,37,13.60
2010,06,22,19,38,13.60
2010,06,22,19,39,13.60
2010,06,22,19,40,13.60
2010,06,22,19,41,13.60
2010,06,22,19,42,13.60
2010,06,22,19,43,13.50
2010,06,22,19,44,13.50
2010,06,22,19,45,13.40
2010,06,22,19,46,13.40
2010,06,22,19,47,13.30
2010,06,22,19,48,13.30
2010,06,22,19,49,13.30
2010,06,22,19,50,13.30
2010,06,22,19,51,13.20
2010,06,22,19,52,13.20
2010,06,22,19,53,13.20
2010,06,22,19,54,13.20
2010,06,22,19,55,13.20
2010,06,22,19,56,13.20
2010,06,22,19,57,13.20
2010,06,22,19,58,13.20
2010,06,22,19,59,13.30
2010,06,22,20,00,13.30
2010,06,22,20,01,13.30
2010,06,22,20,02,13.30
2010,06,22,20,03,13.30
2010,06,22,20,04,13.20
2010,06,22,20,05,13.20
2010,06,22,20,06,13.20
2010,06,22,20,07,13.20
2010,06,22,20,08,13.20
2010,06,22,20,09,13.20
2010,06,22,20,10,13.10
2010,06,22,20,11,13.10
2010,06,22,20,12,13.10
2010,06,22,20,13,13.10
2010,06,22,20,14,13.10
2010,06,22,20,15,13.20
2010,06,22,20,16,13.20
2010,06,22,20,17,13.20
2010,06,22,20,18,13.20
2010,06,22,20,19,13.20
2010,06,22,20,20,13.20
2010,06,22,20,21,13.20
2010,06,22,20,22,13.30
2010,06,22,20,23,13.30
2010,06,22,20,24,13.20
2010,06,22,20,25,13.20
2010,06,22,20,26,13.20
2010,06,22,20,27,13.20
2010,06,22,20,28,13.30
2010,06,22,20,29,13.30
2010,06,22,20,30,13.30
2010,06,22,20,31,13.30
2010,06,22,20,32,13.30
2010,06,22,20,33,13.30
2010,06,22,20,34,13.30
2010,06,22,20,35,13.30
2010,06,22,20,36,13.20
2010,06,22,20,37,13.20
2010,06,22,20,38,13.20
2010,06,22,20,39,13.30
2010,06,22,20,40,13.30
2010,06,22,20,41,13.30
2010,06,22,20,42,13.30
2010,06,22,20,43,13.30
2010,06,22,20,44,13.30
2010,06,22,20,45,13.30
2010,06,22,20,46,13.30
2010,06,22,20,47,13.30
2010,06,22,20,48,13.30
2010,06,22,20,49,13.30
2010,06,22,20,50,13.30
2010,06,22,20,51,13.30
2010,06,22,20,52,13.20
2010,06,22,20,53,13.20
2010,06,22,20,54,13.20
2010,06,22,20,55,13.20
2010,06,22,20,56,13.20
2010,06,22,20,57,13.20
2010,06,22,20,58,13.10
2010,06,22,20,59,13.10
2010,06,22,21,00,13.10
2010,06,22,21,01,13.10
2010,06,22,21,02,13.10
2010,06,22,21,03,13.10
2010,06,22,21,04,13.10
2010,06,22,21,05,13.10
2010,06,22,21,06,13.10
2010,06,22,21,07,13.10
2010,06,22,21,08,13.10
2010,06,22,21,09,13.10
2010,06,22,21,10,13.10
2010,06,22,21,11,13.10
2010,06,22,21,12,13.10
2010,06,22,21,13,13.10
2010,06,22,21,14,13.10
2010,06,22,21,15,13.10
2010,06,22,21,16,13.10
2010,06,22,21,17,13.00
2010,06,22,21,18,13.00
2010,06,22,21,19,13.00
2010,06,22,21,20,13.00
2010,06,22,21,21,12.90
2010,06,22,21,22,12.90
2010,06,22,21,23,12.90
2010,06,22,21,24,12.90
2010,06,22,21,25,12.90
2010,06,22,21,26,12.90
2010,06,22,21,27,12.90
2010,06,22,21,28,12.90
2010,06,22,21,29,12.90
2010,06,22,21,30,12.90
2010,06,22,21,31,12.90
2010,06,22,21,32,12.90
2010,06,22,21,33,12.80
2010,06,22,21,34,12.80
2010,06,22,21,35,12.80
2010,06,22,21,36,12.80
2010,06,22,21,37,12.80
2010,06,22,21,38,12.80
2010,06,22,21,39,12.90
2010,06,22,21,40,12.90
2010,06,22,21,41,12.90
2010,06,22,21,42,12.90
2010,06,22,21,43,12.80
2010,06,22,21,44,12.80
2010,06,22,21,45,12.80
2010,06,22,21,46,12.80
2010,06,22,21,47,12.80
2010,06,22,21,48,12.80
2010,06,22,21,49,12.80
2010,06,22,21,50,12.80
2010,06,22,21,51,12.80
2010,06,22,21,52,12.80
2010,06,22,21,53,12.80
2010,06,22,21,54,12.80
2010,06,22,21,55,12.80
2010,06,22,21,56,12.80
2010,06,22,21,57,12.80
2010,06,22,21,58,12.80
2010,06,22,21,59,12.80
2010,06,22,22,00,12.80
2010,06,22,22,01,12.80
2010,06,22,22,02,12.80
2010,06,22,22,03,12.80
2010,06,22,22,04,12.80
2010,06,22,22,05,12.80
2010,06,22,22,06,12.80
2010,06,22,22,07,12.80
2010,06,22,22,08,12.80
2010,06,22,22,09,12.80
2010,06,22,22,10,12.80
2010,06,22,22,11,12.80
2010,06,22,22,12,12.80
2010,06,22,22,13,12.80
2010,06,22,22,14,12.80
2010,06,22,22,15,12.90
2010,06,22,22,16,12.90
2010,06,22,22,17,12.90
2010,06,22,22,18,12.90
2010,06,22,22,19,12.80
2010,06,22,22,20,12.80
2010,06,22,22,21,12.80
2010,06,22,22,22,12.80
2010,06,22,22,23,12.80
2010,06,22,22,24,12.80
2010,06,22,22,25,12.80
2010,06,22,22,26,12.80
2010,06,22,22,27,12.80
2010,06,22,22,28,12.80
2010,06,22,22,29,12.80
2010,06,22,22,30,12.80
2010,06,22,22,31,12.80
2010,06,22,22,32,12.80
2010,06,22,22,33,12.80
2010,06,22,22,34,12.80
2010,06,22,22,35,12.80
2010,06,22,22,36,12.80
2010,06,22,22,37,12.80
2010,06,22,22,38,12.70
2010,06,22,22,39,12.70
2010,06,22,22,40,12.70
2010,06,22,22,41,12.70
2010,06,22,22,42,12.70
2010,06,22,22,43,12.70
2010,06,22,22,44,12.70
2010,06,22,22,45,12.70
2010,06,22,22,46,12.70
2010,06,22,22,47,12.70
2010,06,22,22,48,12.70
2010,06,22,22,49,12.70
2010,06,22,22,50,12.70
2010,06,22,22,51,12.70
2010,06,22,22,52,12.70
2010,06,22,22,53,12.70
2010,06,22,22,54,12.70
2010,06,22,22,55,12.70
2010,06,22,22,56,12.70
2010,06,22,22,57,12.70
2010,06,22,22,58,12.70
2010,06,22,22,59,12.70
2010,06,22,23,00,12.60
2010,06,22,23,01,12.60
2010,06,22,23,02,12.60
2010,06,22,23,03,12.60
2010,06,22,23,04,12.60
2010,06,22,23,05,12.60
2010,06,22,23,06,12.60
2010,06,22,23,07,12.60
2010,06,22,23,08,12.60
2010,06,22,23,09,12.60
2010,06,22,23,10,12.60
2010,06,22,23,11,12.60
2010,06,22,23,12,12.60
2010,06,22,23,13,12.60
2010,06,22,23,14,12.60
2010,06,22,23,15,12.60
2010,06,22,23,16,12.60
2010,06,22,23,17,12.60
2010,06,22,23,18,12.60
2010,06,22,23,19,12.60
2010,06,22,23,20,12.50
2010,06,22,23,21,12.60
2010,06,22,23,22,12.50
2010,06,22,23,23,12.50
2010,06,22,23,24,12.50
2010,06,22,23,25,12.50
2010,06,22,23,26,12.50
2010,06,22,23,27,12.50
2010,06,22,23,28,12.50
2010,06,22,23,29,12.50
2010,06,22,23,30,12.50
2010,06,22,23,31,12.50
2010,06,22,23,32,12.50
2010,06,22,23,33,12.50
2010,06,22,23,34,12.50
2010,06,22,23,35,12.50
2010,06,22,23,36,12.50
2010,06,22,23,37,12.50
2010,06,22,23,38,12.50
2010,06,22,23,39,12.50
2010,06,22,23,40,12.50
2010,06,22,23,41,12.50
2010,06,22,23,42,12.50
2010,06,22,23,43,12.50
2010,06,22,23,44,12.50
2010,06,22,23,45,12.50
2010,06,22,23,46,12.50
2010,06,22,23,47,12.50
2010,06,22,23,48,12.50
2010,06,22,23,49,12.50
2010,06,22,23,50,12.50
2010,06,22,23,51,12.50
2010,06,22,23,52,12.50
2010,06,22,23,53,12.50
2010,06,22,23,54,12.50
2010,06,22,23,55,12.50
2010,06,22,23,56,12.50
2010,06,22,23,57,12.50
2010,06,22,23,58,12.50
2010,06,22,23,59,12.50
